sat.trackr.live / text

‹ back to catalog

ONEWEB-0270

NORAD 48988 · 2021-060X

PAYLOAD ACTIVE UNKNOWN

§ Identity

Operator
Country
UK
Launch date
2021-07-01
Launch site
VOSTO
Launch vehicle
Mass (kg)
RCS (m²)

Purposes: comms

External: N2YO · Heavens-Above · Gunter

§ Orbital elements

Epoch: 2026-05-25T00:06:23.367168Z

Period
109.37 min
Inclination
87.9109°
Eccentricity
0.0001618
Mean motion
13.16592944 rev/d
Perigee alt
1,196.5 km
Apogee alt
1,199.0 km
Semi-major
7,575.9 km
B*
1.2625e-4
RAAN
233.3856°
Arg perigee
99.0830°
Mean anomaly
261.0484°
Rev number
23,661

§ Raw data

ONEWEB-02701 48988U 21060X   26145.00443712  .00000061  00000+0  12625-3 0  99902 48988  87.9109 233.3856 0001618  99.0830 261.0484 13.16592944236615

JSON: /api/v1/satellites/48988 · /tle

For live sub-satellite position, see the globe view (requires WebGL).

§ Visibility from observer

Set your observer location to see the next 7 days of passes ≥ 10°. The values pass through the URL so the page stays shareable.

No JS? Fill the form by hand. The geolocation button needs JavaScript.